Regional Weather Roundup
Issued by NWS Upton, NY

Current Version | Previous Version | Text Only | Print | Product List | Glossary On
Versions: 1 2 3 4 5 6 7 8 9 10 11 12 13 14 15 16 17 18 19 20 21 22 23 24 25 26 27 28 29 30 31 32 33 34 35 36 37 38 39 40 41 42 43 44 45 46 47 48 49 50
000
ASUS41 KOKX 180308
RWROKX

REGIONAL WEATHER ROUNDUP
NATIONAL WEATHER SERVICE NEW YORK NY
1000 PM EST FRI NOV 17 2017

NOTE: "FAIR" INDICATES FEW OR NO CLOUDS BELOW 12,000 FEET WITH NO
SIGNIFICANT WEATHER AND/OR OBSTRUCTIONS TO VISIBILITY.

NYZ071-072-176-178-NJZ106-104-180400-
NEW YORK CITY METRO AREA

CITY           SKY/WX    TMP DP  RH WIND       PRES   REMARKS
Central Park   CLEAR     39  16  39 CALM      30.11R
Bronx Bot Gard   N/A     39  18  41 SW8       30.08R WCI  34
LaGuardia APRT PTCLDY    42  18  37 W12       30.09R
Kennedy INTL   PTCLDY    39  17  41 W7        30.10R WCI  34
Breezy Point     N/A     39 N/A N/A NW8         N/A  WCI  34
Newark/Liberty PTCLDY    39  17  41 W9        30.10S WCI  33
Teterboro      CLEAR     37  17  44 NW3       30.08S
$$

NYZ177-179-078>081-180400-
LONG ISLAND NEW YORK

CITY           SKY/WX    TMP DP  RH WIND       PRES   REMARKS
Jones Beach      N/A     41 N/A N/A W6          N/A
Matinecock PT    N/A     41 N/A N/A W15         N/A
Farmingdale    CLEAR     36  19  50 W5        30.07F WCI  32
MacArthur/ISP  CLEAR     32  22  66 SW9       30.05F WCI  24
Shirley        CLEAR     31  24  75 W6        30.05F WCI  25
Mt Sinai Harb    N/A    N/A N/A N/A NW6         N/A
Westhampton    CLEAR     37  14  38 NW7       30.04F WCI  32
East Hampton   FAIR      38  16  40 CALM      30.03S
Southold       NOT AVBL
Montauk        NOT AVBL
$$

NYZ052-065-067-180400-
HUDSON VALLEY

CITY           SKY/WX    TMP DP  RH WIND       PRES   REMARKS
White Plains   CLEAR     30  21  69 SW3       30.05R
Larchmont Harb   N/A     39 N/A N/A W9          N/A  WCI  33
Croton On Huds   N/A     36 N/A N/A NW5G12      N/A  WCI  32
Newburgh       CLEAR     30  21  69 CALM      30.08R
Montgomery     CLEAR     28  18  66 S3        30.06R
Poughkeepsie   CLEAR     27  18  69 CALM      30.07R
Albany         CLEAR     29  18  63 W6        30.07F WCI  23
$$

NJZ001-105-106-008-010-013-015-019>022-104-180400-
NEW JERSEY

CITY           SKY/WX    TMP DP  RH WIND       PRES   REMARKS
Newark/Liberty PTCLDY    39  17  41 W9        30.10S WCI  33
Teterboro      CLEAR     37  17  44 NW3       30.08S
Caldwell       CLEAR     34  18  52 S5        30.09F WCI  30
Somerville     CLEAR     28  22  78 CALM      30.09S
Linden         FAIR      37  18  46 CALM      30.10R
Perth Amboy      N/A     39 N/A N/A W5          N/A
Sussex         CLEAR     32  20  61 CALM      30.08S
Andover        NOT AVBL
Trenton        CLEAR     34  24  67 NW3       30.09F
Millville      CLEAR     30  26  85 CALM      30.12F
Atlantic City  CLEAR     36  27  69 W5        30.12S WCI  32
Wrightstown    CLEAR     32  25  74 W6        30.08F WCI  27
Toms River     CLEAR     26  23  88 CALM      30.11F
Belmar         CLEAR     34  18  52 W7        30.10F WCI  28
$$

PAZ047>061-062-071-180400-
EASTERN PENNSYLVANIA

CITY           SKY/WX    TMP DP  RH WIND       PRES   REMARKS
Philadelphia   PTCLDY    40  26  57 SW3       30.12S
Allentown      CLOUDY    33  23  66 SW3       30.09F
Scranton       CLEAR     29  20  69 SE3       30.06F
$$

CTZ002-004>006-009-010-012-RIZ004-006-007-MAZ004-011-015-180400-
SOUTHERN NEW ENGLAND
 IN CT

CITY           SKY/WX    TMP DP  RH WIND       PRES   REMARKS
Bradley INTL   CLEAR     28  19  69 NW3       30.03F
Hartford       CLEAR     29  21  72 CALM      30.04S
Danbury        CLEAR     30  15  53 W3        30.06S
Wtrbury/Oxford CLEAR     32  10  40 NW3       30.02F
Norwalk Harbor   N/A     37 N/A N/A W9          N/A  WCI  31
Bridgeport     CLEAR     37  14  38 NW3       30.05F
Meriden        CLEAR     26  20  77 CALM      30.04F
New Haven      CLEAR     38  16  40 W5        30.04F WCI  34
Chester        FAIR      34  12  40 W3        30.01S
Groton         CLEAR     34  17  50 W7        30.03R WCI  28
Wilimantic     CLEAR     32  19  58 CALM      30.02F

 IN RI

CITY           SKY/WX    TMP DP  RH WIND       PRES   REMARKS
Providence     CLEAR     34  19  54 NW5       30.00F WCI  30
Block Island   CLEAR     38  20  48 NW10G16   30.01F WCI  31
Westerly       CLEAR     35  18  49 W3        30.02F
 IN MA

CITY           SKY/WX    TMP DP  RH WIND       PRES   REMARKS
Boston         CLEAR     36  13  38 W14       29.99S WCI  27
Worcester      CLEAR     30  15  53 W7        29.96S WCI  23
Westfield      CLEAR     27  18  69 CALM      30.02F
Provincetown   CLEAR     40  20  44 NW21G32   29.97F WCI  30
Nantucket      CLEAR     40  21  46 NW18G30   29.96F WCI  31
$$

ANZ330-335-338-340-345-350-353-355-180400-
COASTAL MARINE OBSERVATIONS


STATION/POSITION TIME  SKY/WX   TEMP    WIND        PRES    VSBY  WAVE
                                AIR SEA DIR/SP/G                  HT/PER
                 (UTC)          (F)     (DEG/KT/KT) (MB)    (MI)  (FT/S)
NY HARB ENTRANCE 0150            46 57  310/ 14/ 19 1017.9          3/ 4
20 S FIRE ISLAND 0150            47 58  320/ 17/ 21 1018.5          3/ 5
GREAT SOUTH BAY  0230            41 46  280/  8/ 10   N/A
HUDSON CANYON    0150            51 60  320/ 16/ 19 1017.3          6/ 7
KINGS POINT      NOT AVBL
EXECUTION ROCKS  0230            42     260/  8/ 12   N/A
WESTERN LI SOUND 0219            42     300/  8/ 12   N/A           0
CENTRAL LI SOUND NOT AVBL
ROBBINS REEF     NOT AVBL
$$


>>>>>>>>>>>>>>>>>>>>>>>>>>>> KEY <<<<<<<<<<<<<<<<<<<<<<<<<<<
>                                                          <
>     SKY/WX - Sky Condition/Present Weather               <
>     TMP    - Temperature in Fahrenheit                   <
>     DP     - Dew Point in Fahrenheit                     <
>     RH     - Relative Humidity in Percent                <
>     WIND   - Direction (from) and Speed in MPH           <
>     PRES   - Mean Sea Level Pressure (inches of Hg)      <
>     WCI    - Wind Chill Index                            <
>     VSB    - VISIBILITY IN MILES                         <
>     HX     - HEAT INDEX                                  <
>     TC     - TEMPERATURE IN CELSIUS                      <
>     VRB    - VARIABLE WIND DIRECTION                     <
>                                                          <
>>>>>>>>>>>>>>>>>>>>>>>>>>>> KEY <<<<<<<<<<<<<<<<<<<<<<<<<<<



USA.gov is the U.S. government's official web portal to all federal, state and local government web resources and services.